| time (UTC) | temp C | wind direction | speed KPH | gust KPH | rain 1hr cm | rain 24hr cm | rain mn cm | humidity % | barometer mb |
| 20260506124457 | 11 | 74 | 0.0 | 0.0 | 0.00 | 0.00 | 0.00 | 75 | 1015.7 |
| 20260506123934 | 11 | 74 | 0.0 | 0.0 | 0.00 | 0.00 | 0.00 | 75 | 1015.7 |
| 20260506123439 | 11 | 74 | 0.0 | 0.0 | 0.00 | 0.00 | 0.00 | 74 | 1015.7 |
| 20260506122940 | 11 | 74 | 0.0 | 0.0 | 0.00 | 0.00 | 0.00 | 73 | 1015.6 |
| 20260506122441 | 11 | 74 | 0.0 | 0.0 | 0.00 | 0.00 | 0.00 | 73 | 1015.5 |
| 20260506122001 | 11 | 74 | 0.0 | 0.0 | 0.00 | 0.00 | 0.00 | 72 | 1015.5 |
| 20260506121437 | 11 | 74 | 0.0 | 0.0 | 0.00 | 0.00 | 0.00 | 72 | 1014.5 |
| 20260506120936 | 12 | 74 | 0.0 | 0.0 | 0.00 | 0.00 | 0.00 | 71 | 1014.5 |
| 20260506120526 | 12 | 74 | 0.0 | 0.0 | 0.00 | 0.00 | 0.00 | 71 | 1014.5 |
| 20260506115954 | 12 | 74 | 0.0 | 0.0 | 0.00 | 0.00 | 0.00 | 70 | 1014.5 |
| 20260506115453 | 12 | 74 | 0.0 | 0.0 | 0.00 | 0.00 | 0.00 | 69 | 1014.4 |
| 20260506114953 | 12 | 74 | 0.0 | 0.0 | 0.00 | 0.00 | 0.00 | 68 | 1014.3 |
| 20260506114512 | 12 | 74 | 0.0 | 0.0 | 0.00 | 0.00 | 0.00 | 68 | 1014.4 |
| 20260506114011 | 12 | 74 | 0.0 | 0.0 | 0.00 | 0.00 | 0.00 | 67 | 1014.3 |
| 20260506113449 | 12 | 74 | 0.0 | 0.0 | 0.00 | 0.00 | 0.00 | 67 | 1014.3 |
| 20260506112953 | 12 | 74 | 0.0 | 0.0 | 0.00 | 0.00 | 0.00 | 67 | 1014.2 |
| 20260506112451 | 12 | 74 | 0.0 | 0.0 | 0.00 | 0.00 | 0.00 | 67 | 1014.2 |
| 20260506111951 | 12 | 78 | 0.0 | 0.0 | 0.00 | 0.00 | 0.00 | 67 | 1014.2 |
| 20260506111449 | 12 | 78 | 0.0 | 0.0 | 0.00 | 0.00 | 0.00 | 66 | 1014.2 |
| 20260506110950 | 12 | 78 | 0.0 | 0.0 | 0.00 | 0.00 | 0.00 | 65 | 1014.1 |
| 20260506110502 | 12 | 78 | 0.0 | 0.0 | 0.00 | 0.00 | 0.00 | 64 | 1014.0 |
| 20260506105947 | 12 | 78 | 0.0 | 0.0 | 0.00 | 0.00 | 0.00 | 62 | 1014.0 |
| 20260506105445 | 12 | 78 | 0.0 | 0.0 | 0.00 | 0.00 | 0.00 | 62 | 1014.0 |
| 20260506104935 | 13 | 50 | 0.0 | 0.0 | 0.00 | 0.00 | 0.00 | 61 | 1014.0 |
| 20260506104453 | 13 | 49 | 0.0 | 0.0 | 0.00 | 0.00 | 0.00 | 61 | 1014.0 |
| 20260506103951 | 13 | 49 | 0.0 | 0.0 | 0.00 | 0.00 | 0.00 | 59 | 1013.9 |
| 20260506103433 | 13 | 49 | 0.0 | 0.0 | 0.00 | 0.00 | 0.00 | 57 | 1013.9 |
| 20260506102936 | 14 | 342 | 0.0 | 0.0 | 0.00 | 0.00 | 0.00 | 55 | 1013.8 |
| 20260506102515 | 14 | 342 | 0.0 | 0.0 | 0.00 | 0.00 | 0.00 | 54 | 1013.8 |
| 20260506101954 | 14 | 342 | 0.0 | 0.0 | 0.00 | 0.00 | 0.00 | 53 | 1013.7 |
| 20260506101452 | 14 | 342 | 0.0 | 0.0 | 0.00 | 0.00 | 0.00 | 52 | 1013.6 |
| 20260506100936 | 14 | 342 | 0.0 | 0.0 | 0.00 | 0.00 | 0.00 | 51 | 1013.6 |
| 20260506100508 | 14 | 342 | 0.0 | 0.0 | 0.00 | 0.00 | 0.00 | 50 | 1013.5 |
| 20260506095952 | 14 | 342 | 0.0 | 0.0 | 0.00 | 0.00 | 0.00 | 51 | 1013.5 |
| 20260506095511 | 14 | 342 | 0.0 | 0.0 | 0.00 | 0.00 | 0.00 | 51 | 1013.6 |
| 20260506094953 | 14 | 342 | 0.0 | 0.0 | 0.00 | 0.00 | 0.00 | 52 | 1013.6 |
| 20260506094454 | 14 | 342 | 0.0 | 0.0 | 0.00 | 0.00 | 0.00 | 51 | 1013.5 |
| 20260506093955 | 14 | 342 | 1.6 | 0.0 | 0.00 | 0.00 | 0.00 | 51 | 1013.5 |
| 20260506093439 | 14 | 336 | 1.6 | 0.0 | 0.00 | 0.00 | 0.00 | 52 | 1013.5 |
| 20260506093000 | 13 | 287 | 0.0 | 0.0 | 0.00 | 0.00 | 0.00 | 52 | 1013.5 |
| 20260506092437 | 13 | 287 | 0.0 | 0.0 | 0.00 | 0.00 | 0.00 | 52 | 1013.5 |
| 20260506091934 | 13 | 287 | 0.0 | 0.0 | 0.00 | 0.00 | 0.00 | 52 | 1013.5 |
| 20260506091436 | 13 | 287 | 0.0 | 0.0 | 0.00 | 0.00 | 0.00 | 52 | 1013.4 |
| 20260506090934 | 13 | 285 | 0.0 | 0.0 | 0.00 | 0.00 | 0.00 | 53 | 1013.4 |
| 20260506090506 | 13 | 280 | 0.0 | 0.0 | 0.00 | 0.00 | 0.00 | 53 | 1013.4 |
| 20260506085950 | 14 | 280 | 0.0 | 0.0 | 0.00 | 0.00 | 0.00 | 53 | 1013.4 |
| 20260506085449 | 14 | 280 | 0.0 | 0.0 | 0.00 | 0.00 | 0.00 | 53 | 1013.3 |
| 20260506084948 | 13 | 280 | 0.0 | 0.0 | 0.00 | 0.00 | 0.00 | 53 | 1013.4 |
| 20260506084447 | 13 | 280 | 1.6 | 0.0 | 0.00 | 0.00 | 0.00 | 53 | 1013.5 |
| 20260506083946 | 13 | 277 | 1.6 | 0.0 | 0.00 | 0.00 | 0.00 | 53 | 1013.4 |
| 20260506083451 | 13 | 247 | 0.0 | 0.0 | 0.00 | 0.00 | 0.00 | 53 | 1013.4 |
| 20260506082950 | 13 | 246 | 0.0 | 0.0 | 0.00 | 0.00 | 0.00 | 55 | 1013.5 |
| 20260506082512 | 13 | 246 | 0.0 | 0.0 | 0.00 | 0.00 | 0.00 | 55 | 1013.4 |
| 20260506081951 | 14 | 246 | 0.0 | 0.0 | 0.00 | 0.00 | 0.00 | 55 | 1013.4 |
| 20260506081510 | 14 | 246 | 0.0 | 0.0 | 0.00 | 0.00 | 0.00 | 54 | 1013.4 |
| 20260506080949 | 14 | 246 | 0.0 | 0.0 | 0.00 | 0.00 | 0.00 | 54 | 1013.5 |
| 20260506080501 | 14 | 247 | 0.0 | 0.0 | 0.00 | 0.00 | 0.00 | 53 | 1013.5 |
| 20260506073510 | 15 | 263 | 1.6 | 0.0 | 0.00 | 0.00 | 0.00 | 46 | 1013.5 |
| 20260506073011 | 15 | 271 | 1.6 | 0.0 | 0.00 | 0.00 | 0.00 | 46 | 1013.6 |
| 20260506072509 | 15 | 282 | 1.6 | 0.0 | 0.00 | 0.00 | 0.00 | 46 | 1013.6 |
| 20260506071948 | 16 | 278 | 1.6 | 0.0 | 0.00 | 0.00 | 0.00 | 46 | 1013.6 |
| 20260506071446 | 16 | 276 | 1.6 | 0.0 | 0.00 | 0.00 | 0.00 | 46 | 1013.5 |
| 20260506071005 | 16 | 288 | 1.6 | 0.0 | 0.00 | 0.00 | 0.00 | 46 | 1013.5 |
| 20260506070517 | 16 | 284 | 1.6 | 0.0 | 0.00 | 0.00 | 0.00 | 47 | 1013.5 |
| 20260506062451 | 16 | 294 | 1.6 | 0.0 | 0.00 | 0.00 | 0.36 | 46 | 1013.3 |
| 20260506062011 | 16 | 294 | 1.6 | 0.0 | 0.00 | 0.00 | 0.36 | 45 | 1013.3 |
| 20260506061451 | 16 | 302 | 3.2 | 0.0 | 0.00 | 0.00 | 0.36 | 45 | 1013.3 |
| 20260506060952 | 17 | 294 | 3.2 | 0.0 | 0.00 | 0.00 | 0.36 | 45 | 1013.3 |
| 20260506060501 | 17 | 299 | 3.2 | 0.0 | 0.00 | 0.00 | 0.36 | 44 | 1013.4 |
| 20260506050937 | 18 | 270 | 3.2 | 0.0 | 0.00 | 0.00 | 0.36 | 42 | 1012.8 |
| 20260506050506 | 18 | 270 | 4.8 | 0.0 | 0.00 | 0.00 | 0.36 | 41 | 1012.8 |
| 20260506044953 | 18 | 296 | 6.4 | 0.0 | 0.00 | 0.00 | 0.36 | 43 | 1012.5 |
| 20260506044438 | 18 | 265 | 6.4 | 0.0 | 0.00 | 0.00 | 0.36 | 45 | 1012.5 |
| 20260506043938 | 18 | 283 | 6.4 | 0.0 | 0.00 | 0.00 | 0.36 | 46 | 1012.5 |
| 20260506043436 | 18 | 290 | 8.0 | 0.0 | 0.00 | 0.00 | 0.36 | 47 | 1012.5 |
| 20260506042935 | 18 | 281 | 8.0 | 0.0 | 0.00 | 0.00 | 0.36 | 47 | 1012.4 |
| 20260506042454 | 18 | 270 | 6.4 | 0.0 | 0.00 | 0.00 | 0.36 | 48 | 1012.4 |
| 20260506041957 | 18 | 284 | 4.8 | 0.0 | 0.00 | 0.00 | 0.36 | 47 | 1012.4 |
| 20260506041459 | 18 | 269 | 4.8 | 0.0 | 0.00 | 0.00 | 0.36 | 47 | 1012.3 |
| 20260506040958 | 18 | 267 | 3.2 | 0.0 | 0.00 | 0.00 | 0.36 | 46 | 1012.2 |
| 20260506040506 | 18 | 278 | 1.6 | 0.0 | 0.00 | 0.00 | 0.36 | 44 | 1012.1 |
| 20260506040011 | 18 | 296 | 1.6 | 0.0 | 0.00 | 0.00 | 0.36 | 42 | 1012.0 |
| 20260506035450 | 18 | 290 | 3.2 | 0.0 | 0.00 | 0.00 | 0.36 | 42 | 1011.9 |
| 20260506034950 | 18 | 284 | 3.2 | 0.0 | 0.00 | 0.00 | 0.36 | 41 | 1011.8 |
| 20260506034510 | 18 | 286 | 1.6 | 0.0 | 0.00 | 0.00 | 0.36 | 40 | 1011.8 |
| 20260506034010 | 19 | 276 | 0.0 | 0.0 | 0.00 | 0.00 | 0.36 | 40 | 1011.7 |
| 20260506033447 | 19 | 275 | 0.0 | 0.0 | 0.00 | 0.00 | 0.36 | 39 | 1011.6 |
| 20260506032949 | 19 | 275 | 0.0 | 0.0 | 0.00 | 0.00 | 0.36 | 39 | 1011.5 |
| 20260506032448 | 19 | 273 | 1.6 | 0.0 | 0.00 | 0.00 | 0.36 | 38 | 1011.4 |
| 20260506031947 | 19 | 274 | 1.6 | 0.0 | 0.00 | 0.00 | 0.36 | 38 | 1011.4 |
| 20260506031504 | 19 | 268 | 1.6 | 0.0 | 0.00 | 0.00 | 0.36 | 37 | 1011.3 |
| 20260506030945 | 20 | 273 | 3.2 | 0.0 | 0.00 | 0.00 | 0.36 | 37 | 1011.2 |
| 20260506030454 | 20 | 275 | 3.2 | 0.0 | 0.00 | 0.00 | 0.36 | 36 | 1011.2 |
| 20260506030002 | 20 | 262 | 1.6 | 0.0 | 0.00 | 0.00 | 0.36 | 36 | 1011.1 |
| 20260506025439 | 20 | 285 | 1.6 | 0.0 | 0.00 | 0.00 | 0.36 | 35 | 1011.1 |
| 20260506024939 | 20 | 268 | 3.2 | 0.0 | 0.00 | 0.00 | 0.36 | 35 | 1011.0 |
| 20260506024444 | 20 | 243 | 4.8 | 0.0 | 0.00 | 0.00 | 0.36 | 34 | 1011.0 |
| 20260506024004 | 20 | 262 | 6.4 | 0.0 | 0.00 | 0.00 | 0.36 | 34 | 1010.9 |
| 20260506023441 | 20 | 273 | 4.8 | 0.0 | 0.00 | 0.00 | 0.36 | 33 | 1010.8 |
| 20260506022940 | 20 | 278 | 6.4 | 0.0 | 0.00 | 0.00 | 0.36 | 33 | 1010.6 |
| 20260506022440 | 20 | 246 | 8.0 | 0.0 | 0.00 | 0.00 | 0.36 | 32 | 1010.6 |
| 20260506022001 | 20 | 292 | 9.7 | 0.0 | 0.00 | 0.00 | 0.36 | 32 | 1010.5 |
| 20260506021441 | 20 | 294 | 9.7 | 0.0 | 0.00 | 0.00 | 0.36 | 31 | 1010.3 |
| 20260506020940 | 20 | 298 | 8.0 | 0.0 | 0.00 | 0.00 | 0.36 | 31 | 1010.3 |
| 20260506020454 | 21 | 281 | 9.7 | 0.0 | 0.00 | 0.00 | 0.36 | 31 | 1010.2 |
| 20260506015943 | 21 | 281 | 9.7 | 0.0 | 0.00 | 0.00 | 0.36 | 31 | 1010.2 |
| 20260506015442 | 21 | 225 | 9.7 | 0.0 | 0.00 | 0.00 | 0.36 | 31 | 1010.2 |
| 20260506014942 | 21 | 288 | 9.7 | 0.0 | 0.00 | 0.00 | 0.36 | 31 | 1010.1 |
| 20260506014441 | 21 | 275 | 9.7 | 0.0 | 0.00 | 0.00 | 0.36 | 32 | 1010.0 |
| 20260506013943 | 21 | 287 | 12.9 | 0.0 | 0.00 | 0.00 | 0.36 | 32 | 1010.1 |
| 20260506013442 | 21 | 305 | 14.5 | 0.0 | 0.00 | 0.00 | 0.36 | 32 | 1010.0 |
| 20260506012948 | 22 | 283 | 11.3 | 0.0 | 0.00 | 0.00 | 0.36 | 32 | 1009.9 |
| 20260506012447 | 22 | 304 | 11.3 | 0.0 | 0.00 | 0.00 | 0.36 | 31 | 1009.9 |
| 20260506011947 | 22 | 255 | 12.9 | 0.0 | 0.00 | 0.00 | 0.36 | 31 | 1009.9 |
| 20260506011445 | 22 | 275 | 11.3 | 0.0 | 0.00 | 0.00 | 0.36 | 31 | 1009.8 |
| 20260506010944 | 22 | 273 | 11.3 | 0.0 | 0.00 | 0.00 | 0.36 | 29 | 1009.8 |
| 20260506010515 | 22 | 231 | 11.3 | 0.0 | 0.00 | 0.00 | 0.36 | 29 | 1009.7 |
| 20260506005940 | 23 | 234 | 8.0 | 0.0 | 0.00 | 0.00 | 0.36 | 29 | 1009.6 |
| 20260506005503 | 23 | 283 | 9.7 | 0.0 | 0.00 | 0.00 | 0.36 | 29 | 1009.6 |
| 20260506004940 | 23 | 295 | 11.3 | 0.0 | 0.00 | 0.00 | 0.36 | 27 | 1009.5 |
| 20260506004502 | 23 | 280 | 9.7 | 0.0 | 0.00 | 0.00 | 0.36 | 27 | 1009.5 |
| 20260506003942 | 23 | 253 | 11.3 | 0.0 | 0.00 | 0.00 | 0.36 | 27 | 1009.5 |
| 20260506003442 | 23 | 196 | 11.3 | 0.0 | 0.00 | 0.00 | 0.36 | 26 | 1009.4 |
| 20260506003002 | 24 | 277 | 9.7 | 0.0 | 0.00 | 0.00 | 0.36 | 25 | 1009.4 |
| 20260506002439 | 24 | 217 | 8.0 | 0.0 | 0.00 | 0.00 | 0.36 | 26 | 1009.3 |
| 20260506001938 | 24 | 275 | 8.0 | 0.0 | 0.00 | 0.00 | 0.36 | 26 | 1009.3 |
| 20260506001436 | 24 | 202 | 6.4 | 0.0 | 0.00 | 0.00 | 0.36 | 25 | 1009.2 |
| 20260506000934 | 23 | 235 | 9.7 | 0.0 | 0.00 | 0.00 | 0.36 | 26 | 1009.3 |
| 20260506000507 | 24 | 207 | 11.3 | 0.0 | 0.00 | 0.00 | 0.36 | 26 | 1009.2 |
| 20260505235932 | 25 | 251 | 9.7 | 0.0 | 0.00 | 0.00 | 0.36 | 25 | 1009.2 |
| 20260505235437 | 25 | 300 | 9.7 | 0.0 | 0.00 | 0.00 | 0.36 | 24 | 1009.1 |
| 20260505235001 | 25 | 254 | 11.3 | 0.0 | 0.00 | 0.00 | 0.36 | 25 | 1009.2 |
| 20260505234442 | 25 | 223 | 11.3 | 0.0 | 0.00 | 0.00 | 0.36 | 24 | 1009.0 |
| 20260505233941 | 25 | 225 | 11.3 | 0.0 | 0.00 | 0.00 | 0.36 | 22 | 1009.1 |
| 20260505233440 | 25 | 250 | 8.0 | 0.0 | 0.00 | 0.00 | 0.36 | 25 | 1009.0 |
| 20260505232938 | 25 | 245 | 9.7 | 0.0 | 0.00 | 0.00 | 0.36 | 26 | 1009.0 |
| 20260505232439 | 25 | 217 | 9.7 | 0.0 | 0.00 | 0.00 | 0.36 | 27 | 1009.0 |
| 20260505231959 | 24 | 194 | 6.4 | 0.0 | 0.00 | 0.00 | 0.36 | 28 | 1009.0 |
| 20260505231457 | 24 | 281 | 9.7 | 0.0 | 0.00 | 0.00 | 0.36 | 27 | 1009.0 |
| 20260505230934 | 25 | 246 | 8.0 | 0.0 | 0.00 | 0.00 | 0.36 | 27 | 1009.1 |
| 20260505230446 | 24 | 207 | 8.0 | 0.0 | 0.00 | 0.00 | 0.36 | 29 | 1009.1 |
| 20260505225955 | 24 | 206 | 9.7 | 0.0 | 0.00 | 0.00 | 0.36 | 27 | 1009.3 |
| 20260505225455 | 24 | 250 | 9.7 | 0.0 | 0.00 | 0.00 | 0.36 | 27 | 1009.2 |
| 20260505224935 | 24 | 225 | 9.7 | 0.0 | 0.00 | 0.00 | 0.36 | 28 | 1009.2 |
| 20260505224434 | 24 | 234 | 9.7 | 0.0 | 0.00 | 0.00 | 0.36 | 27 | 1009.3 |
| 20260505223954 | 25 | 279 | 9.7 | 0.0 | 0.00 | 0.00 | 0.36 | 28 | 1009.3 |
| 20260505223514 | 25 | 208 | 9.7 | 0.0 | 0.00 | 0.00 | 0.36 | 26 | 1009.3 |
| 20260505222935 | 25 | 252 | 9.7 | 0.0 | 0.00 | 0.00 | 0.36 | 27 | 1009.4 |
| 20260505222434 | 25 | 202 | 11.3 | 0.0 | 0.00 | 0.00 | 0.36 | 27 | 1009.4 |
| 20260505222015 | 25 | 316 | 11.3 | 0.0 | 0.00 | 0.00 | 0.36 | 26 | 1009.4 |
| 20260505221436 | 25 | 240 | 11.3 | 0.0 | 0.00 | 0.00 | 0.36 | 28 | 1009.5 |
| 20260505220938 | 25 | 214 | 12.9 | 0.0 | 0.00 | 0.00 | 0.36 | 28 | 1009.5 |
| 20260505220447 | 25 | 261 | 9.7 | 0.0 | 0.00 | 0.00 | 0.36 | 28 | 1009.5 |
| 20260505215936 | 24 | 202 | 6.4 | 0.0 | 0.00 | 0.00 | 0.36 | 29 | 1009.5 |
| 20260505215454 | 23 | 203 | 9.7 | 0.0 | 0.00 | 0.00 | 0.36 | 31 | 1009.7 |
| 20260505214954 | 24 | 208 | 14.5 | 0.0 | 0.00 | 0.00 | 0.36 | 30 | 1010.7 |
| 20260505214452 | 25 | 201 | 14.5 | 0.0 | 0.00 | 0.00 | 0.36 | 28 | 1010.8 |
| 20260505213953 | 25 | 188 | 12.9 | 0.0 | 0.00 | 0.00 | 0.36 | 27 | 1010.7 |
| 20260505213455 | 25 | 310 | 12.9 | 0.0 | 0.00 | 0.00 | 0.36 | 28 | 1010.7 |
| 20260505212933 | 25 | 285 | 12.9 | 0.0 | 0.00 | 0.00 | 0.36 | 28 | 1010.8 |
| 20260505212455 | 25 | 289 | 14.5 | 0.0 | 0.00 | 0.00 | 0.36 | 26 | 1010.8 |
| 20260505211933 | 25 | 252 | 16.1 | 0.0 | 0.00 | 0.00 | 0.36 | 25 | 1010.9 |
| 20260505211435 | 25 | 202 | 16.1 | 0.0 | 0.00 | 0.00 | 0.36 | 26 | 1010.9 |
| 20260505210935 | 25 | 267 | 14.5 | 0.0 | 0.00 | 0.00 | 0.36 | 28 | 1011.0 |
| 20260505210506 | 25 | 232 | 14.5 | 0.0 | 0.00 | 0.00 | 0.36 | 28 | 1010.9 |
| 20260505205936 | 25 | 193 | 14.5 | 0.0 | 0.00 | 0.00 | 0.36 | 29 | 1011.0 |
| 20260505205435 | 25 | 228 | 16.1 | 0.0 | 0.00 | 0.00 | 0.36 | 28 | 1011.0 |
| 20260505204935 | 25 | 290 | 14.5 | 0.0 | 0.00 | 0.00 | 0.36 | 30 | 1011.0 |
| 20260505204454 | 25 | 247 | 12.9 | 0.0 | 0.00 | 0.00 | 0.36 | 30 | 1011.0 |
| 20260505203953 | 25 | 234 | 12.9 | 0.0 | 0.00 | 0.00 | 0.36 | 31 | 1011.0 |
| 20260505203514 | 25 | 215 | 14.5 | 0.0 | 0.00 | 0.00 | 0.36 | 33 | 1011.0 |
| 20260505202952 | 24 | 200 | 14.5 | 0.0 | 0.00 | 0.00 | 0.36 | 33 | 1011.1 |
| 20260505202511 | 24 | 212 | 12.9 | 0.0 | 0.00 | 0.00 | 0.36 | 33 | 1011.1 |
| 20260505202009 | 23 | 227 | 12.9 | 0.0 | 0.00 | 0.00 | 0.36 | 34 | 1011.1 |
| 20260505201451 | 23 | 193 | 12.9 | 0.0 | 0.00 | 0.00 | 0.36 | 37 | 1011.3 |
| 20260505201013 | 23 | 226 | 12.9 | 0.0 | 0.00 | 0.00 | 0.36 | 39 | 1011.2 |
| 20260505200500 | 23 | 257 | 9.7 | 0.0 | 0.00 | 0.00 | 0.36 | 38 | 1011.3 |
| 20260505200008 | 23 | 258 | 4.8 | 0.0 | 0.00 | 0.00 | 0.36 | 39 | 1011.2 |
| 20260505195446 | 22 | 260 | 3.2 | 0.0 | 0.00 | 0.00 | 0.36 | 47 | 1011.3 |
| 20260505194946 | 22 | 275 | 1.6 | 0.0 | 0.00 | 0.00 | 0.36 | 47 | 1011.3 |
| 20260505194444 | 22 | 279 | 1.6 | 0.0 | 0.00 | 0.00 | 0.36 | 47 | 1011.4 |
| 20260505193942 | 22 | 5 | 1.6 | 0.0 | 0.00 | 0.00 | 0.36 | 46 | 1011.3 |
| 20260505193447 | 22 | 291 | 1.6 | 0.0 | 0.00 | 0.00 | 0.36 | 47 | 1011.3 |
| 20260505192946 | 22 | 263 | 1.6 | 0.0 | 0.00 | 0.00 | 0.36 | 47 | 1011.4 |
| 20260505192450 | 22 | 44 | 1.6 | 0.0 | 0.00 | 0.00 | 0.36 | 45 | 1011.5 |
| 20260505191949 | 23 | 55 | 1.6 | 0.0 | 0.00 | 0.00 | 0.36 | 46 | 1011.5 |
| 20260505191450 | 22 | 179 | 0.0 | 0.0 | 0.00 | 0.00 | 0.36 | 48 | 1011.5 |
| 20260505190950 | 22 | 286 | 1.6 | 0.0 | 0.00 | 0.00 | 0.36 | 47 | 1011.6 |
| 20260505190458 | 22 | 286 | 3.2 | 0.0 | 0.00 | 0.00 | 0.36 | 48 | 1011.7 |
| 20260505185946 | 22 | 118 | 3.2 | 0.0 | 0.00 | 0.00 | 0.36 | 48 | 1011.7 |
| 20260505185445 | 22 | 69 | 1.6 | 0.0 | 0.00 | 0.00 | 0.36 | 49 | 1011.9 |
| 20260505184944 | 21 | 92 | 1.6 | 0.0 | 0.00 | 0.00 | 0.36 | 52 | 1012.0 |
| 20260505184506 | 21 | 355 | 1.6 | 0.0 | 0.00 | 0.00 | 0.36 | 51 | 1012.1 |
| 20260505183948 | 21 | 291 | 1.6 | 0.0 | 0.00 | 0.00 | 0.36 | 51 | 1012.2 |
| 20260505183448 | 21 | 291 | 1.6 | 0.0 | 0.00 | 0.00 | 0.36 | 51 | 1012.2 |
| 20260505182946 | 21 | 344 | 1.6 | 0.0 | 0.00 | 0.00 | 0.36 | 51 | 1012.2 |
| 20260505182505 | 21 | 301 | 0.0 | 0.0 | 0.00 | 0.00 | 0.36 | 52 | 1012.3 |
| 20260505181942 | 21 | 227 | 1.6 | 0.0 | 0.00 | 0.00 | 0.36 | 52 | 1012.3 |
| 20260505181442 | 21 | 208 | 1.6 | 0.0 | 0.00 | 0.00 | 0.36 | 54 | 1012.4 |
| 20260505180942 | 21 | 234 | 1.6 | 0.0 | 0.00 | 0.00 | 0.36 | 55 | 1012.4 |
| 20260505180512 | 21 | 205 | 1.6 | 0.0 | 0.00 | 0.00 | 0.36 | 53 | 1012.3 |
| 20260505175944 | 21 | 236 | 0.0 | 0.0 | 0.00 | 0.00 | 0.36 | 53 | 1012.3 |
| 20260505175443 | 21 | 207 | 0.0 | 0.0 | 0.00 | 0.00 | 0.36 | 53 | 1012.4 |
| 20260505174941 | 21 | 186 | 1.6 | 0.0 | 0.00 | 0.00 | 0.36 | 52 | 1012.3 |
| 20260505174443 | 21 | 214 | 1.6 | 0.0 | 0.00 | 0.00 | 0.36 | 51 | 1012.4 |
| 20260505173946 | 22 | 233 | 0.0 | 0.0 | 0.00 | 0.00 | 0.36 | 51 | 1012.5 |
| 20260505173445 | 22 | 192 | 0.0 | 0.0 | 0.00 | 0.00 | 0.36 | 51 | 1012.5 |
| 20260505173007 | 22 | 205 | 1.6 | 0.0 | 0.00 | 0.00 | 0.36 | 49 | 1012.4 |
| 20260505172444 | 22 | 205 | 1.6 | 0.0 | 0.00 | 0.00 | 0.36 | 50 | 1012.5 |
| 20260505171944 | 22 | 166 | 0.0 | 0.0 | 0.00 | 0.00 | 0.36 | 52 | 1012.6 |
| 20260505171442 | 21 | 143 | 0.0 | 0.0 | 0.00 | 0.00 | 0.36 | 53 | 1012.5 |
| 20260505171006 | 21 | 156 | 0.0 | 0.0 | 0.00 | 0.00 | 0.36 | 56 | 1012.4 |
| 20260505170514 | 21 | 163 | 0.0 | 0.0 | 0.00 | 0.00 | 0.36 | 57 | 1012.4 |
| 20260505165941 | 20 | 259 | 0.0 | 0.0 | 0.00 | 0.00 | 0.36 | 56 | 1012.4 |
| 20260505165441 | 20 | 234 | 0.0 | 0.0 | 0.00 | 0.00 | 0.36 | 57 | 1012.4 |
| 20260505165005 | 20 | 204 | 0.0 | 0.0 | 0.00 | 0.00 | 0.36 | 60 | 1012.4 |
| 20260505164442 | 20 | 258 | 0.0 | 0.0 | 0.00 | 0.00 | 0.36 | 63 | 1012.4 |
| 20260505163941 | 19 | 258 | 0.0 | 0.0 | 0.00 | 0.00 | 0.36 | 64 | 1012.4 |
| 20260505163440 | 19 | 259 | 0.0 | 0.0 | 0.00 | 0.00 | 0.36 | 66 | 1012.4 |
| 20260505162942 | 18 | 259 | 0.0 | 0.0 | 0.00 | 0.00 | 0.36 | 70 | 1012.5 |
| 20260505162502 | 18 | 260 | 0.0 | 0.0 | 0.00 | 0.00 | 0.36 | 71 | 1012.6 |
| 20260505161940 | 18 | 260 | 0.0 | 0.0 | 0.00 | 0.00 | 0.36 | 70 | 1012.6 |
| 20260505161459 | 18 | 260 | 0.0 | 0.0 | 0.00 | 0.00 | 0.36 | 69 | 1012.6 |
| 20260505160937 | 18 | 260 | 0.0 | 0.0 | 0.00 | 0.00 | 0.36 | 68 | 1012.6 |
| 20260505160451 | 18 | 260 | 0.0 | 0.0 | 0.00 | 0.00 | 0.36 | 69 | 1012.5 |
| 20260505152940 | 17 | 274 | 0.0 | 0.0 | 0.00 | 0.00 | 0.36 | 74 | 1012.2 |
| 20260505152459 | 17 | 339 | 0.0 | 0.0 | 0.00 | 0.00 | 0.36 | 76 | 1012.2 |
| 20260505151938 | 17 | 339 | 0.0 | 0.0 | 0.00 | 0.00 | 0.36 | 76 | 1012.2 |
| 20260505151440 | 17 | 339 | 0.0 | 0.0 | 0.00 | 0.00 | 0.36 | 76 | 1012.2 |
| 20260505150938 | 17 | 339 | 0.0 | 0.0 | 0.00 | 0.00 | 0.36 | 78 | 1012.1 |
| 20260505150508 | 17 | 30 | 0.0 | 0.0 | 0.00 | 0.00 | 0.36 | 80 | 1012.2 |
| 20260505140447 | 16 | 53 | 0.0 | 0.0 | 0.00 | 0.00 | 0.36 | 81 | 1011.8 |
| 20260505124937 | 15 | 71 | 0.0 | 0.0 | 0.00 | 0.00 | 0.36 | 89 | 1011.0 |